マクノート彗星

C/2006 E1 ( McNaught )

English version
Home page
Total 6,336 html files since Dec. 4, 1995
Updated on April 12, 2008

---------------------------------------------------------------------

・ プロフィール

発見日 2006年3月11日
発見光度 18.0等
発見者 R. H. McNaught (Siding Spring Survey)

・ 軌道要素

The following orbital elements are taken from MPC 61994:

Epoch 2007 Jan. 20.0 TT = JDT 2454120.5
T 2007 Jan. 6.5037 TT                                   MPC
q   6.040565             (2000.0)            P               Q
z  -0.000197       Peri.  232.7789      +0.1470953      +0.0015314
 +/-0.000004       Node    95.0346      -0.2307170      +0.9724677
e   1.001192       Incl.   83.1935      -0.9618382      -0.2330325
From 80 observations 2006 Apr. 26-2008 Feb. 13, mean residual 0".6.

・ 光度変化

        m1 = 6.0 + 5 logΔ + 10.0 log r

---------------------------------------------------------------------

軌道要素はMPCのEphemerides and Orbital Elementsに掲載されたものです。
光度グラフはComet for Windowsで作成したものです。

---------------------------------------------------------------------

Copyright(C) 1995-2008 Seiichi Yoshida (comet@aerith.net). All rights reserved.